�������l�o���
Date,Time,MP-1(��Sv/h),MP-2(��Sv/h),MP-3(��Sv/h),MP-4(��Sv/h),MP-5(��Sv/h),MP-6(��Sv/h),MP-7(��Sv/h),����,����(m/s),���J
2017/02/15,00:00,0.392,0.231,0.400,0.370,0.337,0.192,0.163,�k,4.8,��
2017/02/15,00:10,0.389,0.230,0.402,0.370,0.334,0.192,0.164,�k�k��,4.8,��
2017/02/15,00:20,0.392,0.233,0.399,0.370,0.335,0.192,0.164,�k�k��,4.9,��
2017/02/15,00:30,0.392,0.229,0.401,0.370,0.336,0.193,0.163,�k,5.0,��
2017/02/15,00:40,0.390,0.230,0.401,0.369,0.335,0.193,0.163,�k,4.5,��
2017/02/15,00:50,0.390,0.231,0.401,0.371,0.336,0.193,0.164,�k,5.2,��
2017/02/15,01:00,0.391,0.230,0.400,0.371,0.336,0.192,0.163,�k�k��,5.0,��
2017/02/15,01:10,0.391,0.231,0.400,0.370,0.337,0.193,0.164,�k�k��,5.3,��
2017/02/15,01:20,0.392,0.232,0.400,0.370,0.335,0.192,0.164,�k�k��,5.0,��
2017/02/15,01:30,0.390,0.231,0.401,0.370,0.335,0.192,0.164,�k�k��,5.3,��
2017/02/15,01:40,0.390,0.230,0.400,0.372,0.335,0.192,0.164,�k,5.0,��
2017/02/15,01:50,0.390,0.233,0.400,0.369,0.334,0.191,0.163,�k,2.0,��
2017/02/15,02:00,0.392,0.230,0.400,0.370,0.336,0.192,0.163,�k,4.1,��
2017/02/15,02:10,0.392,0.230,0.401,0.370,0.335,0.192,0.164,�k�k��,3.9,��
2017/02/15,02:20,0.390,0.229,0.398,0.369,0.335,0.193,0.163,�k,4.6,��
2017/02/15,02:30,0.391,0.231,0.401,0.370,0.336,0.192,0.164,�k�k��,5.0,��
2017/02/15,02:40,0.391,0.231,0.399,0.369,0.332,0.192,0.163,�k�k��,3.6,��
2017/02/15,02:50,0.392,0.229,0.399,0.371,0.335,0.192,0.164,�k�k��,4.0,��
2017/02/15,03:00,0.391,0.231,0.399,0.369,0.335,0.192,0.164,�k�k��,5.6,��
2017/02/15,03:10,0.390,0.232,0.400,0.371,0.334,0.191,0.163,�k�k��,6.0,��
2017/02/15,03:20,0.391,0.231,0.401,0.370,0.334,0.192,0.163,�k�k��,4.5,��
2017/02/15,03:30,0.389,0.232,0.402,0.371,0.335,0.192,0.164,�k��,3.9,��
2017/02/15,03:40,0.390,0.229,0.401,0.370,0.334,0.191,0.164,�k��,2.4,��
2017/02/15,03:50,0.391,0.230,0.402,0.370,0.334,0.192,0.164,���k��,2.7,��
2017/02/15,04:00,0.390,0.231,0.400,0.369,0.336,0.191,0.163,���k��,2.8,��
2017/02/15,04:10,0.390,0.232,0.401,0.368,0.336,0.191,0.164,�k��,3.9,��
2017/02/15,04:20,0.389,0.230,0.401,0.369,0.336,0.192,0.163,�k��,3.0,��
2017/02/15,04:30,0.390,0.231,0.401,0.370,0.335,0.192,0.164,�k��,2.8,��
2017/02/15,04:40,0.392,0.232,0.399,0.370,0.335,0.192,0.163,���k��,3.3,��
2017/02/15,04:50,0.392,0.230,0.400,0.370,0.335,0.192,0.164,�k��,3.6,��
2017/02/15,05:00,0.391,0.230,0.400,0.368,0.335,0.191,0.164,�k��,4.1,��
2017/02/15,05:10,0.391,0.230,0.400,0.370,0.334,0.192,0.164,�k��,5.0,��
2017/02/15,05:20,0.391,0.231,0.400,0.371,0.335,0.192,0.163,�k��,5.0,��
2017/02/15,05:30,0.389,0.230,0.400,0.370,0.334,0.192,0.163,���k��,4.6,��
2017/02/15,05:40,0.390,0.230,0.399,0.370,0.335,0.191,0.163,�k��,3.1,��
2017/02/15,05:50,0.390,0.232,0.400,0.369,0.335,0.191,0.163,�k��,2.2,��
2017/02/15,06:00,0.391,0.229,0.400,0.369,0.336,0.192,0.163,�k�k��,1.1,��
2017/02/15,06:10,0.391,0.230,0.400,0.369,0.335,0.191,0.164,�k�k��,0.6,��
2017/02/15,06:20,0.390,0.231,0.401,0.368,0.334,0.192,0.164,-,CALM,��
2017/02/15,06:30,0.389,0.231,0.399,0.368,0.335,0.191,0.163,-,CALM,��
2017/02/15,06:40,0.391,0.230,0.400,0.368,0.335,0.191,0.163,���k��,1.5,��
2017/02/15,06:50,0.391,0.230,0.399,0.369,0.334,0.191,0.164,���k��,2.5,��
2017/02/15,07:00,0.392,0.229,0.399,0.370,0.335,0.191,0.163,���k��,2.8,��
2017/02/15,07:10,0.391,0.229,0.399,0.369,0.335,0.191,0.163,���k��,2.0,��
2017/02/15,07:20,0.390,0.230,0.399,0.368,0.334,0.191,0.164,���k��,2.2,��
2017/02/15,07:30,0.390,0.230,0.401,0.369,0.333,0.190,0.163,�k��,2.5,��
2017/02/15,07:40,0.391,0.231,0.400,0.369,0.334,0.191,0.163,�k��,4.0,��
2017/02/15,07:50,0.390,0.230,0.400,0.370,0.335,0.191,0.162,�k��,4.1,��
2017/02/15,08:00,0.389,0.230,0.400,0.368,0.335,0.191,0.163,�k��,2.8,��
2017/02/15,08:10,0.388,0.230,0.400,0.368,0.333,0.191,0.162,�k��,2.4,��
2017/02/15,08:20,0.390,0.230,0.401,0.368,0.334,0.191,0.163,�k�k��,1.6,��
2017/02/15,08:30,0.390,0.230,0.401,0.364,0.335,0.191,0.163,�k�k��,1.0,��
2017/02/15,08:40,0.389,0.230,0.398,0.367,0.334,0.191,0.162,���k��,0.8,��
2017/02/15,08:50,0.388,0.228,0.400,0.368,0.334,0.192,0.163,�k�k��,1.8,��
2017/02/15,09:00,0.389,0.228,0.401,0.367,0.334,0.191,0.162,�k��,2.2,��
2017/02/15,09:10,0.389,0.228,0.399,0.370,0.333,0.191,0.163,�k��,3.4,��
2017/02/15,09:20,0.391,0.228,0.400,0.368,0.335,0.191,0.162,�k��,4.5,��
2017/02/15,09:30,0.388,0.228,0.399,0.365,0.335,0.191,0.163,�k�k��,4.5,��
2017/02/15,09:40,0.390,0.229,0.401,0.369,0.335,0.190,0.162,���k��,5.8,��
2017/02/15,09:50,0.387,0.228,0.398,0.366,0.333,0.192,0.163,���k��,6.5,��
2017/02/15,10:00,0.387,0.228,0.399,0.369,0.336,0.191,0.162,��,6.6,��
2017/02/15,10:10,0.389,0.230,0.398,0.366,0.334,0.192,0.162,���k��,6.0,��
2017/02/15,10:20,0.389,0.229,0.400,0.369,0.332,0.191,0.164,�k��,3.5,��
2017/02/15,10:30,0.388,0.229,0.399,0.367,0.337,0.191,0.162,�k�k��,3.9,��
2017/02/15,10:40,0.389,0.228,0.399,0.368,0.334,0.191,0.163,�k��,1.9,��
2017/02/15,10:50,0.387,0.229,0.400,0.366,0.335,0.191,0.163,���k��,2.4,��
2017/02/15,11:00,0.388,0.230,0.399,0.367,0.334,0.193,0.163,���k��,4.4,��
2017/02/15,11:10,0.388,0.230,0.399,0.366,0.334,0.192,0.163,���k��,4.5,��
2017/02/15,11:20,0.389,0.228,0.399,0.368,0.336,0.191,0.163,���k��,6.5,��
2017/02/15,11:30,0.389,0.230,0.397,0.366,0.333,0.191,0.163,�k��,7.0,��
2017/02/15,11:40,0.389,0.230,0.399,0.369,0.335,0.192,0.164,�k��,8.1,��
2017/02/15,11:50,0.390,0.230,0.396,0.368,0.334,0.192,0.165,���k��,4.9,��
2017/02/15,12:00,0.390,0.229,0.398,0.369,0.334,0.190,0.162,�k��,7.9,��
2017/02/15,12:10,0.392,0.230,0.399,0.370,0.336,0.192,0.164,�k��,7.8,��
2017/02/15,12:20,0.389,0.230,0.398,0.369,0.334,0.192,0.163,�k��,6.2,��
2017/02/15,12:30,0.390,0.230,0.401,0.370,0.336,0.192,0.164,���k��,7.9,��
2017/02/15,12:40,0.391,0.231,0.399,0.370,0.334,0.192,0.164,���k��,9.2,��
2017/02/15,12:50,0.389,0.230,0.399,0.370,0.334,0.192,0.163,���k��,9.0,��
2017/02/15,13:00,0.392,0.230,0.397,0.370,0.335,0.192,0.163,�k��,10.2,��
2017/02/15,13:10,0.389,0.231,0.398,0.368,0.336,0.193,0.163,���k��,7.5,��
2017/02/15,13:20,0.390,0.230,0.398,0.369,0.337,0.192,0.164,���k��,7.6,��
2017/02/15,13:30,0.392,0.230,0.397,0.368,0.333,0.192,0.163,���k��,8.3,��
2017/02/15,13:40,0.391,0.231,0.399,0.369,0.337,0.191,0.164,���k��,9.7,��
2017/02/15,13:50,0.391,0.230,0.398,0.369,0.334,0.193,0.164,�k��,10.0,��
2017/02/15,14:00,0.392,0.231,0.399,0.368,0.335,0.191,0.162,���k��,10.5,��
2017/02/15,14:10,0.390,0.231,0.398,0.372,0.336,0.191,0.165,���k��,9.5,��
2017/02/15,14:20,0.391,0.230,0.400,0.369,0.335,0.192,0.164,���k��,10.5,��
2017/02/15,14:30,0.392,0.231,0.399,0.372,0.337,0.192,0.164,���k��,10.7,��
2017/02/15,14:40,0.391,0.230,0.399,0.370,0.334,0.192,0.165,�k��,8.0,��
2017/02/15,14:50,0.391,0.230,0.402,0.370,0.336,0.192,0.166,���k��,8.1,��
2017/02/15,15:00,0.392,0.231,0.401,0.373,0.337,0.193,0.166,��,8.0,��
2017/02/15,15:10,0.391,0.230,0.400,0.371,0.336,0.193,0.165,���k��,5.8,��
2017/02/15,15:20,0.391,0.230,0.402,0.371,0.338,0.192,0.165,���k��,6.2,��
2017/02/15,15:30,0.392,0.232,0.402,0.372,0.336,0.191,0.164,���k��,5.1,��
2017/02/15,15:40,0.391,0.232,0.400,0.371,0.336,0.193,0.164,���k��,6.0,��
2017/02/15,15:50,0.392,0.231,0.403,0.371,0.337,0.192,0.164,���k��,5.4,��
2017/02/15,16:00,0.391,0.231,0.399,0.372,0.337,0.194,0.164,��,5.3,��
2017/02/15,16:10,0.391,0.231,0.400,0.370,0.337,0.191,0.165,��,5.8,��
2017/02/15,16:20,0.392,0.231,0.401,0.372,0.336,0.193,0.165,��,5.7,��
2017/02/15,16:30,0.389,0.232,0.400,0.373,0.336,0.192,0.164,��,5.7,��
2017/02/15,16:40,0.392,0.230,0.398,0.371,0.336,0.193,0.164,��,3.1,��
2017/02/15,16:50,0.392,0.230,0.402,0.371,0.336,0.193,0.164,���k��,3.3,��
2017/02/15,17:00,0.392,0.231,0.401,0.372,0.337,0.193,0.165,��,3.4,��
2017/02/15,17:10,0.393,0.232,0.399,0.370,0.336,0.193,0.164,�k��,4.1,��
2017/02/15,17:20,0.393,0.231,0.401,0.370,0.336,0.193,0.164,���k��,2.4,��
2017/02/15,17:30,0.391,0.232,0.401,0.372,0.337,0.193,0.164,���k��,4.3,��
2017/02/15,17:40,0.391,0.232,0.401,0.373,0.336,0.192,0.164,���k��,5.0,��
2017/02/15,17:50,0.392,0.230,0.400,0.370,0.336,0.194,0.164,���k��,5.3,��
2017/02/15,18:00,0.392,0.231,0.402,0.371,0.335,0.193,0.164,���k��,4.0,��
2017/02/15,18:10,0.393,0.231,0.401,0.371,0.336,0.193,0.165,�k��,3.6,��
2017/02/15,18:20,0.392,0.230,0.401,0.371,0.335,0.192,0.165,���k��,2.7,��
2017/02/15,18:30,0.392,0.232,0.400,0.370,0.336,0.193,0.165,�k��,1.6,��
2017/02/15,18:40,0.393,0.231,0.403,0.370,0.336,0.193,0.165,�k��,2.0,��
2017/02/15,18:50,0.391,0.232,0.401,0.371,0.336,0.194,0.165,���k��,5.3,��
2017/02/15,19:00,0.391,0.231,0.399,0.371,0.336,0.193,0.164,�k��,4.2,��
2017/02/15,19:10,0.393,0.231,0.401,0.371,0.334,0.193,0.164,���k��,3.4,��
2017/02/15,19:20,0.393,0.231,0.402,0.372,0.337,0.194,0.165,���k��,5.6,��
2017/02/15,19:30,0.392,0.231,0.400,0.373,0.337,0.194,0.163,���k��,6.5,��
2017/02/15,19:40,0.391,0.232,0.399,0.372,0.335,0.195,0.164,��,6.9,��
2017/02/15,19:50,0.392,0.230,0.401,0.371,0.335,0.194,0.164,���k��,7.8,��
2017/02/15,20:00,0.395,0.231,0.402,0.371,0.336,0.193,0.164,���k��,7.5,��
2017/02/15,20:10,0.392,0.231,0.401,0.372,0.335,0.192,0.164,���k��,5.8,��
2017/02/15,20:20,0.392,0.231,0.401,0.370,0.336,0.192,0.164,���k��,2.6,��
2017/02/15,20:30,0.393,0.231,0.402,0.370,0.336,0.192,0.164,�k��,4.1,��
2017/02/15,20:40,0.393,0.232,0.400,0.372,0.335,0.193,0.163,���k��,5.4,��
2017/02/15,20:50,0.391,0.232,0.400,0.371,0.335,0.192,0.164,���k��,4.2,��
2017/02/15,21:00,0.392,0.232,0.400,0.371,0.336,0.194,0.165,���k��,4.6,��
2017/02/15,21:10,0.392,0.230,0.400,0.372,0.336,0.193,0.164,��,5.8,��
2017/02/15,21:20,0.393,0.231,0.401,0.371,0.334,0.193,0.163,���k��,6.7,��
2017/02/15,21:30,0.391,0.231,0.401,0.372,0.334,0.193,0.164,��,4.5,��
2017/02/15,21:40,0.392,0.232,0.400,0.370,0.336,0.192,0.164,���k��,3.6,��
2017/02/15,21:50,0.392,0.232,0.402,0.370,0.334,0.193,0.164,��,3.5,��
2017/02/15,22:00,0.393,0.230,0.402,0.371,0.335,0.193,0.165,��,3.1,��
2017/02/15,22:10,0.392,0.232,0.400,0.372,0.334,0.194,0.164,���k��,3.1,��
2017/02/15,22:20,0.392,0.231,0.401,0.371,0.335,0.193,0.164,���k��,2.9,��
2017/02/15,22:30,0.393,0.232,0.401,0.371,0.336,0.192,0.163,��,3.9,��
2017/02/15,22:40,0.391,0.231,0.401,0.370,0.335,0.192,0.165,��,3.3,��
2017/02/15,22:50,0.391,0.231,0.402,0.369,0.334,0.192,0.165,��,2.6,��
2017/02/15,23:00,0.391,0.232,0.401,0.371,0.334,0.193,0.164,���k��,3.3,��
2017/02/15,23:10,0.392,0.231,0.401,0.371,0.336,0.193,0.163,���k��,2.6,��
2017/02/15,23:20,0.393,0.230,0.401,0.372,0.336,0.193,0.165,���k��,2.3,��
2017/02/15,23:30,0.391,0.232,0.400,0.373,0.335,0.193,0.164,�k��,1.9,��
2017/02/15,23:40,0.392,0.230,0.401,0.370,0.335,0.192,0.165,�k�k��,1.1,��
2017/02/15,23:50,0.391,0.233,0.399,0.370,0.336,0.193,0.164,�k,0.9,��
